Time,TemperatureF,DewpointF,PressureIn,WindDirection,WindDirectionDegrees,WindSpeedMPH,WindSpeedGustMPH,Humidity,HourlyPrecipIn,Conditions,Clouds,dailyrainin,SolarRadiationWatts/m^2,SoftwareType,DateUTC
2013-03-22 00:04:00,70.2,67.1,29.99,SW,222,4.6,4.6,90,0.00,CLR,,0.00,0.0,WeatherDisplay:10.37,2013-03-22 10:04:00,
2013-03-22 00:09:00,70.3,67.2,29.99,SSW,205,4.6,4.6,90,0.00,CLR,,0.00,0.0,WeatherDisplay:10.37,2013-03-22 10:09:00,
2013-03-22 00:14:00,70.3,67.2,29.99,SW,216,5.8,5.8,90,0.00,CLR,,0.00,0.0,WeatherDisplay:10.37,2013-03-22 10:14:00,
2013-03-22 00:19:00,70.3,67.2,29.99,SSW,211,3.5,3.5,90,0.00,CLR,,0.00,0.0,WeatherDisplay:10.37,2013-03-22 10:19:00,
2013-03-22 00:24:00,70.3,67.5,29.99,SW,229,5.0,5.0,91,0.00,CLR,,0.00,0.0,WeatherDisplay:10.37,2013-03-22 10:24:00,
2013-03-22 00:29:00,70.3,67.5,29.99,SW,234,6.0,6.0,91,0.00,CLR,,0.00,0.0,WeatherDisplay:10.37,2013-03-22 10:29:00,
2013-03-22 00:34:00,70.3,67.5,29.99,WSW,257,4.6,4.6,91,0.00,CLR,,0.00,0.0,WeatherDisplay:10.37,2013-03-22 10:34:00,
2013-03-22 00:39:00,70.2,67.4,29.99,South,189,6.9,6.9,91,0.00,CLR,,0.00,0.0,WeatherDisplay:10.37,2013-03-22 10:39:00,
2013-03-22 00:44:00,70.2,67.4,29.99,SW,217,6.9,6.9,91,0.00,CLR,,0.00,0.0,WeatherDisplay:10.37,2013-03-22 10:44:00,
2013-03-22 00:49:00,70.2,67.4,29.99,SW,225,4.0,4.0,91,0.00,CLR,,0.00,0.0,WeatherDisplay:10.37,2013-03-22 10:49:00,
2013-03-22 00:54:00,70.2,67.4,29.98,SW,220,9.2,9.2,91,0.00,CLR,,0.00,0.0,WeatherDisplay:10.37,2013-03-22 10:54:00,
2013-03-22 00:59:00,70.1,67.3,29.98,South,190,5.8,5.8,91,0.00,CLR,,0.00,0.0,WeatherDisplay:10.37,2013-03-22 10:59:00,
2013-03-22 01:04:00,70.1,67.7,29.98,SW,218,5.8,5.8,92,0.00,CLR,,0.00,0.0,WeatherDisplay:10.37,2013-03-22 11:04:00,
2013-03-22 01:09:00,70.0,67.6,29.98,SSW,213,3.5,3.8,92,0.00,CLR,,0.00,0.0,WeatherDisplay:10.37,2013-03-22 11:09:00,
2013-03-22 01:14:00,69.9,67.5,29.98,SW,215,6.0,6.0,92,0.00,CLR,,0.00,0.0,WeatherDisplay:10.37,2013-03-22 11:14:00,
2013-03-22 01:19:00,69.8,67.4,29.97,SSW,206,3.0,3.0,92,0.00,CLR,,0.00,0.0,WeatherDisplay:10.37,2013-03-22 11:19:00,
2013-03-22 01:24:00,69.7,67.0,29.97,SSW,199,8.0,8.0,91,0.00,CLR,,0.00,0.0,WeatherDisplay:10.37,2013-03-22 11:24:00,
2013-03-22 01:29:00,69.8,67.1,29.97,SSW,200,3.5,3.5,91,0.00,CLR,,0.00,0.0,WeatherDisplay:10.37,2013-03-22 11:29:00,
2013-03-22 01:34:00,69.8,67.1,29.97,SW,228,8.0,8.0,91,0.00,CLR,,0.00,0.0,WeatherDisplay:10.37,2013-03-22 11:34:00,
2013-03-22 01:39:00,69.8,67.1,29.96,SW,217,4.6,4.6,91,0.00,CLR,,0.00,0.0,WeatherDisplay:10.37,2013-03-22 11:39:00,
2013-03-22 01:44:00,69.7,67.0,29.96,SSW,192,6.9,6.9,91,0.00,CLR,,0.00,0.0,WeatherDisplay:10.37,2013-03-22 11:44:00,
2013-03-22 01:49:00,69.6,66.9,29.95,South,185,6.9,6.9,91,0.00,CLR,,0.00,0.0,WeatherDisplay:10.37,2013-03-22 11:49:00,
2013-03-22 01:54:00,69.5,66.8,29.95,South,184,6.0,6.0,91,0.00,CLR,,0.00,0.0,WeatherDisplay:10.37,2013-03-22 11:54:00,
2013-03-22 01:59:00,69.5,66.8,29.95,SW,222,5.0,5.0,91,0.00,CLR,,0.00,0.0,WeatherDisplay:10.37,2013-03-22 11:59:00,
2013-03-22 02:04:00,69.5,66.8,29.95,WSW,238,3.5,3.5,91,0.00,CLR,,0.00,0.0,WeatherDisplay:10.37,2013-03-22 12:04:00,
2013-03-22 02:09:00,69.4,66.3,29.95,SW,224,5.0,5.0,90,0.00,CLR,,0.00,0.0,WeatherDisplay:10.37,2013-03-22 12:09:00,
2013-03-22 02:14:00,69.4,66.3,29.95,SW,232,2.3,2.3,90,0.00,CLR,,0.00,0.0,WeatherDisplay:10.37,2013-03-22 12:14:00,
2013-03-22 02:19:00,69.4,66.3,29.95,SW,223,5.0,5.0,90,0.00,CLR,,0.00,0.0,WeatherDisplay:10.37,2013-03-22 12:19:00,
2013-03-22 02:24:00,69.4,66.3,29.95,WSW,241,3.5,3.5,90,0.00,CLR,,0.00,0.0,WeatherDisplay:10.37,2013-03-22 12:24:00,
2013-03-22 02:29:00,69.5,66.4,29.95,WSW,246,7.0,7.0,90,0.00,CLR,,0.00,0.0,WeatherDisplay:10.37,2013-03-22 12:29:00,
2013-03-22 02:34:00,69.6,66.5,29.95,WSW,257,5.8,5.8,90,0.00,CLR,,0.00,0.0,WeatherDisplay:10.37,2013-03-22 12:34:00,
2013-03-22 02:39:00,69.6,66.5,29.95,SSW,201,6.0,6.0,90,0.00,CLR,,0.00,0.0,WeatherDisplay:10.37,2013-03-22 12:39:00,
2013-03-22 02:44:00,69.7,66.6,29.95,SSW,211,9.2,9.2,90,0.00,CLR,,0.00,0.0,WeatherDisplay:10.37,2013-03-22 12:44:00,
2013-03-22 02:49:00,69.5,66.1,29.95,SSW,202,6.0,6.2,89,0.00,CLR,,0.00,0.0,WeatherDisplay:10.37,2013-03-22 12:49:00,
2013-03-22 02:54:00,69.5,66.1,29.94,SSW,201,10.4,10.4,89,0.00,CLR,,0.00,0.0,WeatherDisplay:10.37,2013-03-22 12:54:00,
2013-03-22 02:59:00,69.6,66.2,29.94,SW,218,4.0,4.0,89,0.00,CLR,,0.00,0.0,WeatherDisplay:10.37,2013-03-22 12:59:00,
2013-03-22 03:04:00,69.7,66.3,29.94,SSW,196,8.1,8.1,89,0.00,CLR,,0.00,0.0,WeatherDisplay:10.37,2013-03-22 13:04:00,
2013-03-22 03:09:00,69.9,66.5,29.93,West,261,10.4,10.4,89,0.00,CLR,,0.00,0.0,WeatherDisplay:10.37,2013-03-22 13:09:00,
2013-03-22 03:14:00,70.0,66.6,29.93,SW,219,10.4,10.4,89,0.00,CLR,,0.00,0.0,WeatherDisplay:10.37,2013-03-22 13:14:00,
2013-03-22 03:19:00,70.0,66.6,29.93,SW,221,7.0,7.0,89,0.00,CLR,,0.00,0.0,WeatherDisplay:10.37,2013-03-22 13:19:00,
2013-03-22 03:24:00,69.9,66.5,29.93,SW,217,6.9,6.9,89,0.00,CLR,,0.00,0.0,WeatherDisplay:10.37,2013-03-22 13:24:00,
2013-03-22 03:29:00,69.7,66.3,29.93,SW,229,5.8,6.0,89,0.00,CLR,,0.00,0.0,WeatherDisplay:10.37,2013-03-22 13:29:00,
2013-03-22 03:34:00,69.7,66.3,29.93,SW,219,7.0,7.0,89,0.00,CLR,,0.00,0.0,WeatherDisplay:10.37,2013-03-22 13:34:00,
2013-03-22 03:39:00,69.6,66.2,29.93,WSW,244,5.8,5.8,89,0.00,CLR,,0.00,0.0,WeatherDisplay:10.37,2013-03-22 13:39:00,
2013-03-22 03:44:00,69.7,66.3,29.93,SW,225,4.0,4.0,89,0.00,CLR,,0.00,0.0,WeatherDisplay:10.37,2013-03-22 13:44:00,
2013-03-22 03:49:00,69.7,66.3,29.93,SW,224,7.0,7.0,89,0.00,CLR,,0.00,0.0,WeatherDisplay:10.37,2013-03-22 13:49:00,
2013-03-22 03:54:00,69.8,66.4,29.93,SSW,202,4.6,4.6,89,0.00,CLR,,0.00,0.0,WeatherDisplay:10.37,2013-03-22 13:54:00,
2013-03-22 03:59:00,69.7,66.3,29.92,WSW,252,4.6,4.6,89,0.00,CLR,,0.00,0.0,WeatherDisplay:10.37,2013-03-22 13:59:00,
2013-03-22 04:04:00,69.5,66.1,29.92,SSW,208,6.9,6.9,89,0.00,CLR,,0.00,0.0,WeatherDisplay:10.37,2013-03-22 14:04:00,
2013-03-22 04:09:00,69.5,65.8,29.92,SSW,211,3.5,3.5,88,0.00,CLR,,0.00,0.0,WeatherDisplay:10.37,2013-03-22 14:09:00,
2013-03-22 04:14:00,69.5,65.8,29.92,WSW,240,6.9,6.9,88,0.00,CLR,,0.00,0.0,WeatherDisplay:10.37,2013-03-22 14:14:00,
2013-03-22 04:19:00,69.4,65.7,29.92,West,259,8.1,8.1,88,0.00,CLR,,0.00,0.0,WeatherDisplay:10.37,2013-03-22 14:19:00,
2013-03-22 04:24:00,69.3,65.6,29.92,WSW,246,4.0,4.0,88,0.00,CLR,,0.00,0.0,WeatherDisplay:10.37,2013-03-22 14:24:00,
2013-03-22 04:29:00,69.3,65.6,29.92,SW,219,4.6,4.6,88,0.00,CLR,,0.00,0.0,WeatherDisplay:10.37,2013-03-22 14:29:00,
2013-03-22 04:34:00,69.2,65.5,29.92,SSW,213,4.6,4.6,88,0.00,CLR,,0.00,0.0,WeatherDisplay:10.37,2013-03-22 14:34:00,
2013-03-22 04:39:00,69.2,65.5,29.92,SW,236,6.9,6.9,88,0.00,CLR,,0.00,0.0,WeatherDisplay:10.37,2013-03-22 14:39:00,
2013-03-22 04:44:00,69.2,65.5,29.92,SW,236,5.8,5.8,88,0.00,CLR,,0.00,0.0,WeatherDisplay:10.37,2013-03-22 14:44:00,
2013-03-22 04:49:00,69.3,65.6,29.92,SW,233,5.8,5.8,88,0.00,CLR,,0.00,0.0,WeatherDisplay:10.37,2013-03-22 14:49:00,
2013-03-22 04:54:00,69.4,66.0,29.93,WSW,252,6.9,6.9,89,0.00,CLR,,0.00,0.0,WeatherDisplay:10.37,2013-03-22 14:54:00,
2013-03-22 04:59:00,69.4,66.0,29.92,WSW,247,5.8,5.8,89,0.00,CLR,,0.00,0.0,WeatherDisplay:10.37,2013-03-22 14:59:00,
2013-03-22 05:04:00,69.6,66.2,29.93,WSW,243,4.6,4.6,89,0.00,CLR,,0.00,0.0,WeatherDisplay:10.37,2013-03-22 15:04:00,
2013-03-22 05:09:00,69.7,66.6,29.93,SW,225,5.8,5.8,90,0.00,CLR,,0.00,0.0,WeatherDisplay:10.37,2013-03-22 15:09:00,
2013-03-22 05:14:00,69.8,66.7,29.93,SSW,209,4.6,4.6,90,0.00,CLR,,0.00,0.0,WeatherDisplay:10.37,2013-03-22 15:14:00,
2013-03-22 05:19:00,69.9,66.8,29.93,WSW,239,8.1,8.1,90,0.00,CLR,,0.00,0.0,WeatherDisplay:10.37,2013-03-22 15:19:00,
2013-03-22 05:24:00,69.9,66.8,29.93,SSW,213,8.1,8.1,90,0.00,CLR,,0.00,0.0,WeatherDisplay:10.37,2013-03-22 15:24:00,
2013-03-22 05:29:00,69.8,67.1,29.93,SW,219,6.9,6.9,91,0.00,CLR,,0.00,0.0,WeatherDisplay:10.37,2013-03-22 15:29:00,
2013-03-22 05:34:00,69.7,67.0,29.93,SW,214,5.0,5.0,91,0.00,CLR,,0.00,0.0,WeatherDisplay:10.37,2013-03-22 15:34:00,
2013-03-22 05:39:00,69.7,67.0,29.93,SSW,212,7.0,7.0,91,0.00,CLR,,0.00,0.0,WeatherDisplay:10.37,2013-03-22 15:39:00,
2013-03-22 05:44:00,69.5,66.8,29.94,SW,229,8.1,8.1,91,0.00,CLR,,0.00,0.0,WeatherDisplay:10.37,2013-03-22 15:44:00,
2013-03-22 05:49:00,69.4,66.7,29.94,SW,233,4.0,4.0,91,0.00,CLR,,0.00,0.0,WeatherDisplay:10.37,2013-03-22 15:49:00,
2013-03-22 05:54:00,69.2,66.5,29.94,SW,221,7.0,7.0,91,0.00,CLR,,0.00,0.0,WeatherDisplay:10.37,2013-03-22 15:54:00,
2013-03-22 05:59:00,69.2,66.5,29.93,WSW,252,4.6,4.6,91,0.00,CLR,,0.00,0.0,WeatherDisplay:10.37,2013-03-22 15:59:00,
2013-03-22 06:04:00,69.2,66.5,29.94,SW,216,4.6,4.6,91,0.00,CLR,,0.00,0.0,WeatherDisplay:10.37,2013-03-22 16:04:00,
2013-03-22 06:09:00,69.0,66.3,29.94,SSW,207,5.8,5.8,91,0.00,CLR,,0.00,0.0,WeatherDisplay:10.37,2013-03-22 16:09:00,
2013-03-22 06:14:00,68.9,66.2,29.94,SSW,213,6.9,6.9,91,0.00,CLR,,0.00,0.0,WeatherDisplay:10.37,2013-03-22 16:14:00,
2013-03-22 06:19:00,69.1,66.4,29.94,South,188,5.8,5.8,91,0.00,CLR,,0.00,0.0,WeatherDisplay:10.37,2013-03-22 16:19:00,
2013-03-22 06:24:00,69.3,66.6,29.94,SW,215,5.8,5.8,91,0.00,CLR,,0.00,0.0,WeatherDisplay:10.37,2013-03-22 16:24:00,
2013-03-22 06:29:00,69.4,66.7,29.94,SSW,203,6.9,6.9,91,0.01,RA,,0.02,0.0,WeatherDisplay:10.37,2013-03-22 16:29:00,
2013-03-22 06:34:00,69.5,67.1,29.94,SSW,202,4.0,4.0,92,0.02,RA,,0.02,0.0,WeatherDisplay:10.37,2013-03-22 16:34:00,
2013-03-22 06:39:00,69.5,67.1,29.95,SSW,200,7.0,7.0,92,0.02,RA,,0.02,0.0,WeatherDisplay:10.37,2013-03-22 16:39:00,
2013-03-22 06:44:00,69.5,67.1,29.95,WSW,253,2.3,2.3,92,0.02,CLR,,0.02,5.0,WeatherDisplay:10.37,2013-03-22 16:44:00,
2013-03-22 06:49:00,69.4,67.0,29.95,WSW,256,4.6,4.6,92,0.02,CLR,,0.02,11.0,WeatherDisplay:10.37,2013-03-22 16:49:00,
2013-03-22 06:54:00,69.3,66.9,29.95,South,182,2.3,2.3,92,0.02,BKN,,0.02,18.0,WeatherDisplay:10.37,2013-03-22 16:54:00,
2013-03-22 06:59:00,69.1,66.7,29.95,West,259,6.9,6.9,92,0.02,BKN,,0.02,23.0,WeatherDisplay:10.37,2013-03-22 16:59:00,
2013-03-22 07:04:00,68.7,66.3,29.95,WSW,254,6.9,6.9,92,0.02,BKN,,0.02,30.0,WeatherDisplay:10.37,2013-03-22 17:04:00,
2013-03-22 07:09:00,68.5,66.1,29.95,SSW,205,3.5,3.5,92,0.02,BKN,,0.02,33.0,WeatherDisplay:10.37,2013-03-22 17:09:00,
2013-03-22 07:14:00,68.4,66.0,29.96,WSW,253,5.8,5.8,92,0.02,BKN,,0.02,32.0,WeatherDisplay:10.37,2013-03-22 17:14:00,
2013-03-22 07:19:00,68.5,66.4,29.96,SW,218,2.3,2.3,93,0.02,,,0.02,28.0,WeatherDisplay:10.37,2013-03-22 17:19:00,
2013-03-22 07:24:00,68.6,66.5,29.96,South,186,8.1,8.1,93,0.02,BKN,,0.02,69.0,WeatherDisplay:10.37,2013-03-22 17:24:00,
2013-03-22 07:29:00,68.5,66.1,29.96,SW,215,5.8,5.8,92,0.01,BKN,,0.02,63.0,WeatherDisplay:10.37,2013-03-22 17:29:00,
2013-03-22 07:34:00,68.4,66.3,29.96,SW,224,4.6,4.6,93,0.00,SCT,,0.02,102.0,WeatherDisplay:10.37,2013-03-22 17:34:00,
2013-03-22 07:39:00,68.5,66.4,29.97,SW,223,5.0,5.0,93,0.00,CLR,,0.02,121.0,WeatherDisplay:10.37,2013-03-22 17:39:00,
2013-03-22 07:44:00,68.4,66.0,29.97,SW,236,4.0,4.0,92,0.00,BKN,,0.02,60.0,WeatherDisplay:10.37,2013-03-22 17:44:00,
2013-03-22 07:49:00,68.4,66.0,29.97,SW,221,3.5,3.5,92,0.00,,,0.02,67.0,WeatherDisplay:10.37,2013-03-22 17:49:00,
2013-03-22 07:54:00,68.4,66.0,29.97,SW,230,4.6,4.6,92,0.00,,,0.02,56.0,WeatherDisplay:10.37,2013-03-22 17:54:00,
2013-03-22 07:59:00,68.4,66.0,29.97,WSW,247,1.1,1.2,92,0.00,SCT,,0.02,148.0,WeatherDisplay:10.37,2013-03-22 17:59:00,
2013-03-22 08:04:00,68.6,66.5,29.97,WSW,240,2.3,2.3,93,0.00,FEW,,0.02,179.0,WeatherDisplay:10.37,2013-03-22 18:04:00,
2013-03-22 08:09:00,68.8,66.4,29.97,SW,220,3.5,3.5,92,0.00,FEW,,0.02,162.0,WeatherDisplay:10.37,2013-03-22 18:09:00,
2013-03-22 08:14:00,68.9,66.5,29.97,SW,221,3.5,3.5,92,0.00,SCT,,0.02,151.0,WeatherDisplay:10.37,2013-03-22 18:14:00,
2013-03-22 08:19:00,69.0,66.6,29.97,SW,223,3.5,3.5,92,0.00,BKN,,0.02,121.0,WeatherDisplay:10.37,2013-03-22 18:19:00,
2013-03-22 08:24:00,69.1,66.4,29.97,SW,225,3.5,3.5,91,0.00,BKN,,0.02,118.0,WeatherDisplay:10.37,2013-03-22 18:24:00,
2013-03-22 08:29:00,69.2,66.5,29.98,SW,229,8.1,8.1,91,0.00,BKN,,0.02,121.0,WeatherDisplay:10.37,2013-03-22 18:29:00,
2013-03-22 08:34:00,69.3,66.6,29.98,SW,215,7.0,7.0,91,0.00,OVC,,0.02,113.0,WeatherDisplay:10.37,2013-03-22 18:34:00,
2013-03-22 08:39:00,69.4,66.3,29.97,SW,223,5.0,5.0,90,0.00,BKN,,0.02,116.0,WeatherDisplay:10.37,2013-03-22 18:39:00,
2013-03-22 08:44:00,69.5,66.4,29.98,SSW,198,8.1,8.1,90,0.00,OVC,,0.02,90.0,WeatherDisplay:10.37,2013-03-22 18:44:00,
2013-03-22 08:49:00,69.7,66.6,29.98,SW,215,3.5,3.5,90,0.00,OVC,,0.02,95.0,WeatherDisplay:10.37,2013-03-22 18:49:00,
2013-03-22 08:54:00,69.9,66.8,29.98,SSW,208,6.9,6.9,90,0.00,BKN,,0.02,206.0,WeatherDisplay:10.37,2013-03-22 18:54:00,
2013-03-22 08:59:00,70.1,67.0,29.98,SSE,153,8.1,8.1,90,0.00,BKN,,0.02,274.0,WeatherDisplay:10.37,2013-03-22 18:59:00,
2013-03-22 09:04:00,70.3,66.9,29.98,SSW,208,10.4,10.4,89,0.00,CLR,,0.02,359.0,WeatherDisplay:10.37,2013-03-22 19:04:00,
2013-03-22 09:09:00,70.3,66.9,29.98,SSW,197,5.8,5.8,89,0.00,SCT,,0.02,221.0,WeatherDisplay:10.37,2013-03-22 19:09:00,
2013-03-22 09:14:00,70.4,67.0,29.98,SSW,213,5.8,5.8,89,0.00,SCT,,0.02,309.0,WeatherDisplay:10.37,2013-03-22 19:14:00,
2013-03-22 09:19:00,70.5,66.8,29.98,SSW,192,6.0,6.0,88,0.00,SCT,,0.02,454.0,WeatherDisplay:10.37,2013-03-22 19:19:00,
2013-03-22 09:24:00,71.0,67.3,29.98,South,186,9.2,9.2,88,0.00,CLR,,0.02,803.0,WeatherDisplay:10.37,2013-03-22 19:24:00,
2013-03-22 09:29:00,71.3,67.2,29.98,West,261,7.0,7.0,87,0.00,SCT,,0.02,304.0,WeatherDisplay:10.37,2013-03-22 19:29:00,
2013-03-22 09:34:00,71.6,67.2,29.98,WSW,237,6.9,6.9,86,0.00,BKN,,0.02,269.0,WeatherDisplay:10.37,2013-03-22 19:34:00,
2013-03-22 09:39:00,71.8,67.0,29.99,SW,227,11.5,11.5,85,0.00,CLR,,0.02,900.0,WeatherDisplay:10.37,2013-03-22 19:39:00,
2013-03-22 09:44:00,72.2,67.4,29.98,SW,227,6.0,6.0,85,0.00,FEW,,0.02,362.0,WeatherDisplay:10.37,2013-03-22 19:44:00,
2013-03-22 09:49:00,72.4,67.3,29.98,SW,224,5.8,5.8,84,0.00,CLR,,0.02,552.0,WeatherDisplay:10.37,2013-03-22 19:49:00,
2013-03-22 09:54:00,72.6,66.8,29.98,WSW,243,9.2,9.2,82,0.00,SCT,,0.02,378.0,WeatherDisplay:10.37,2013-03-22 19:54:00,
2013-03-22 09:59:00,72.6,66.1,29.98,SSW,203,6.9,6.9,80,0.00,FEW,,0.02,434.0,WeatherDisplay:10.37,2013-03-22 19:59:00,
2013-03-22 10:04:00,73.1,66.9,29.98,SSW,206,5.0,5.0,81,0.00,FEW,,0.02,846.0,WeatherDisplay:10.37,2013-03-22 20:04:00,
2013-03-22 10:09:00,73.5,66.6,29.98,West,272,5.8,5.8,79,0.00,CLR,,0.02,454.0,WeatherDisplay:10.37,2013-03-22 20:09:00,
2013-03-22 10:14:00,73.7,66.8,29.98,SSW,196,8.0,8.0,79,0.00,CLR,,0.02,536.0,WeatherDisplay:10.37,2013-03-22 20:14:00,
2013-03-22 10:19:00,73.8,66.5,29.98,South,185,7.0,7.0,78,0.00,CLR,,0.02,650.0,WeatherDisplay:10.37,2013-03-22 20:19:00,
2013-03-22 10:24:00,73.7,66.0,29.98,SSW,192,5.8,5.8,77,0.00,FEW,,0.02,527.0,WeatherDisplay:10.37,2013-03-22 20:24:00,
2013-03-22 10:29:00,73.8,66.5,29.98,WSW,243,10.4,10.4,78,0.00,BKN,,0.02,346.0,WeatherDisplay:10.37,2013-03-22 20:29:00,
2013-03-22 10:34:00,73.7,66.0,29.98,SSW,196,8.1,8.1,77,0.00,SCT,,0.02,468.0,WeatherDisplay:10.37,2013-03-22 20:34:00,
2013-03-22 10:39:00,73.7,66.4,29.97,SW,225,6.9,6.9,78,0.00,CLR,,0.02,967.0,WeatherDisplay:10.37,2013-03-22 20:39:00,
2013-03-22 10:44:00,73.9,65.9,29.97,SSW,207,6.0,6.0,76,0.00,CLR,,0.02,499.0,WeatherDisplay:10.37,2013-03-22 20:44:00,
2013-03-22 10:49:00,74.2,66.1,29.97,SSW,210,7.0,7.0,76,0.00,CLR,,0.02,803.0,WeatherDisplay:10.37,2013-03-22 20:49:00,
2013-03-22 10:54:00,74.6,66.5,29.97,WSW,238,8.1,8.1,76,0.00,SCT,,0.02,606.0,WeatherDisplay:10.37,2013-03-22 20:54:00,
2013-03-22 10:59:00,74.8,66.0,29.97,SW,233,8.1,8.1,74,0.00,FEW,,0.02,529.0,WeatherDisplay:10.37,2013-03-22 20:59:00,
2013-03-22 11:04:00,74.8,66.3,29.97,WSW,247,10.4,10.4,75,0.00,SCT,,0.02,471.0,WeatherDisplay:10.37,2013-03-22 21:04:00,
2013-03-22 11:09:00,74.8,66.7,29.96,WSW,241,8.1,8.1,76,0.00,BKN,,0.02,432.0,WeatherDisplay:10.37,2013-03-22 21:09:00,
2013-03-22 11:14:00,74.4,66.7,29.97,WNW,296,9.2,9.2,77,0.00,BKN,,0.02,330.0,WeatherDisplay:10.37,2013-03-22 21:14:00,
2013-03-22 11:19:00,74.3,67.0,29.96,SW,230,8.0,8.0,78,0.00,SCT,,0.02,570.0,WeatherDisplay:10.37,2013-03-22 21:19:00,
2013-03-22 11:24:00,74.3,67.0,29.96,SW,224,10.4,10.4,78,0.00,SCT,,0.02,380.0,WeatherDisplay:10.37,2013-03-22 21:24:00,
2013-03-22 11:29:00,73.9,67.0,29.95,West,269,8.1,8.1,79,0.00,BKN,,0.02,411.0,WeatherDisplay:10.37,2013-03-22 21:29:00,
2013-03-22 11:34:00,73.8,67.2,29.95,SW,234,8.1,8.1,80,0.00,BKN,,0.02,364.0,WeatherDisplay:10.37,2013-03-22 21:34:00,
2013-03-22 11:39:00,73.6,67.4,29.95,SW,218,6.9,6.9,81,0.00,SCT,,0.02,480.0,WeatherDisplay:10.37,2013-03-22 21:39:00,
2013-03-22 11:44:00,73.7,67.9,29.95,SSW,213,10.4,10.4,82,0.00,CLR,,0.02,684.0,WeatherDisplay:10.37,2013-03-22 21:44:00,
2013-03-22 11:49:00,73.6,67.8,29.95,West,281,8.1,8.1,82,0.00,CLR,,0.02,679.0,WeatherDisplay:10.37,2013-03-22 21:49:00,
2013-03-22 11:54:00,73.5,67.3,29.95,West,267,10.4,10.4,81,0.00,BKN,,0.02,318.0,WeatherDisplay:10.37,2013-03-22 21:54:00,
2013-03-22 11:59:00,73.3,67.5,29.95,West,264,5.8,5.8,82,0.00,BKN,,0.02,348.0,WeatherDisplay:10.37,2013-03-22 21:59:00,
2013-03-22 12:04:00,73.1,67.3,29.95,West,261,5.0,5.0,82,0.00,BKN,,0.02,369.0,WeatherDisplay:10.37,2013-03-22 22:04:00,
2013-03-22 12:09:00,73.0,67.5,29.95,WSW,238,7.0,7.0,83,0.00,BKN,,0.02,357.0,WeatherDisplay:10.37,2013-03-22 22:09:00,
2013-03-22 12:14:00,72.8,67.0,29.95,West,277,8.0,8.0,82,0.00,BKN,,0.02,345.0,WeatherDisplay:10.37,2013-03-22 22:14:00,
2013-03-22 12:19:00,72.7,67.2,29.95,WSW,242,11.0,11.0,83,0.00,BKN,,0.02,357.0,WeatherDisplay:10.37,2013-03-22 22:19:00,
2013-03-22 12:24:00,72.5,67.0,29.94,West,259,8.1,8.1,83,0.00,BKN,,0.02,346.0,WeatherDisplay:10.37,2013-03-22 22:24:00,
2013-03-22 12:29:00,72.4,67.3,29.94,SW,227,8.1,8.1,84,0.00,BKN,,0.02,487.0,WeatherDisplay:10.37,2013-03-22 22:29:00,
2013-03-22 12:34:00,72.2,67.1,29.94,West,269,12.7,12.7,84,0.00,BKN,,0.02,417.0,WeatherDisplay:10.37,2013-03-22 22:34:00,
2013-03-22 12:39:00,71.9,66.8,29.93,West,277,9.2,9.2,84,0.00,BKN,,0.02,513.0,WeatherDisplay:10.37,2013-03-22 22:39:00,
2013-03-22 12:44:00,71.9,67.1,29.93,WSW,253,6.9,6.9,85,0.00,BKN,,0.02,406.0,WeatherDisplay:10.37,2013-03-22 22:44:00,
2013-03-22 12:49:00,71.7,66.9,29.93,West,276,8.1,8.1,85,0.00,BKN,,0.02,323.0,WeatherDisplay:10.37,2013-03-22 22:49:00,
2013-03-22 12:54:00,71.6,66.8,29.93,WNW,298,6.9,6.9,85,0.00,BKN,,0.02,330.0,WeatherDisplay:10.37,2013-03-22 22:54:00,
2013-03-22 12:59:00,71.9,67.1,29.92,NNW,342,8.1,8.1,85,0.00,BKN,,0.02,503.0,WeatherDisplay:10.37,2013-03-22 22:59:00,
2013-03-22 13:04:00,72.2,67.1,29.92,West,266,9.2,9.2,84,0.00,FEW,,0.02,671.0,WeatherDisplay:10.37,2013-03-22 23:04:00,
2013-03-22 13:09:00,72.7,67.2,29.92,West,267,5.8,5.8,83,0.00,CLR,,0.02,779.0,WeatherDisplay:10.37,2013-03-22 23:09:00,
2013-03-22 13:14:00,73.2,67.0,29.92,WNW,286,10.4,10.4,81,0.00,FEW,,0.02,636.0,WeatherDisplay:10.37,2013-03-22 23:14:00,
2013-03-22 13:19:00,73.4,66.5,29.92,SW,217,6.9,6.9,79,0.00,BKN,,0.02,334.0,WeatherDisplay:10.37,2013-03-22 23:19:00,
2013-03-22 13:24:00,73.3,66.4,29.92,WNW,282,8.1,8.1,79,0.00,BKN,,0.02,311.0,WeatherDisplay:10.37,2013-03-22 23:24:00,
2013-03-22 13:29:00,72.9,66.0,29.92,West,279,8.0,8.0,79,0.00,BKN,,0.02,329.0,WeatherDisplay:10.37,2013-03-22 23:29:00,
2013-03-22 13:34:00,72.8,66.3,29.91,NW,312,8.1,8.1,80,0.00,BKN,,0.02,399.0,WeatherDisplay:10.37,2013-03-22 23:34:00,
2013-03-22 13:39:00,72.8,66.3,29.91,WSW,240,10.4,10.4,80,0.00,BKN,,0.02,468.0,WeatherDisplay:10.37,2013-03-22 23:39:00,
2013-03-22 13:44:00,72.7,66.2,29.91,West,261,9.2,9.2,80,0.00,BKN,,0.02,427.0,WeatherDisplay:10.37,2013-03-22 23:44:00,
2013-03-22 13:49:00,72.9,66.7,29.91,SW,236,9.2,9.2,81,0.00,SCT,,0.02,515.0,WeatherDisplay:10.37,2013-03-22 23:49:00,
2013-03-22 13:54:00,72.9,66.0,29.90,WNW,287,8.1,8.1,79,0.00,SCT,,0.02,571.0,WeatherDisplay:10.37,2013-03-22 23:54:00,
2013-03-22 13:59:00,73.0,66.5,29.90,WSW,253,4.6,4.6,80,0.00,BKN,,0.02,424.0,WeatherDisplay:10.37,2013-03-22 23:59:00,
2013-03-22 14:04:00,73.0,66.1,29.89,West,263,8.1,8.1,79,0.00,CLR,,0.02,789.0,WeatherDisplay:10.37,2013-03-23 00:04:00,
2013-03-22 14:09:00,73.8,67.6,29.89,WSW,256,5.0,5.0,81,0.00,CLR,,0.02,940.0,WeatherDisplay:10.37,2013-03-23 00:09:00,
2013-03-22 14:14:00,74.5,67.6,29.89,WSW,242,8.1,8.1,79,0.00,SCT,,0.02,446.0,WeatherDisplay:10.37,2013-03-23 00:14:00,
2013-03-22 14:19:00,74.7,67.0,29.89,SW,235,5.8,5.8,77,0.00,SCT,,0.02,464.0,WeatherDisplay:10.37,2013-03-23 00:19:00,
2013-03-22 14:24:00,74.6,66.9,29.89,SW,229,5.8,5.8,77,0.00,BKN,,0.02,348.0,WeatherDisplay:10.37,2013-03-23 00:24:00,
2013-03-22 14:29:00,74.2,66.1,29.89,WNW,293,8.1,8.1,76,0.00,BKN,,0.02,371.0,WeatherDisplay:10.37,2013-03-23 00:29:00,
2013-03-22 14:34:00,73.9,66.2,29.89,WSW,254,5.0,5.4,77,0.00,BKN,,0.02,383.0,WeatherDisplay:10.37,2013-03-23 00:34:00,
2013-03-22 14:39:00,73.7,66.0,29.88,West,264,6.9,6.9,77,0.00,BKN,,0.02,431.0,WeatherDisplay:10.37,2013-03-23 00:39:00,
2013-03-22 14:44:00,73.7,66.0,29.88,SW,236,6.9,6.9,77,0.00,CLR,,0.02,835.0,WeatherDisplay:10.37,2013-03-23 00:44:00,
2013-03-22 14:49:00,74.1,66.4,29.88,SSW,202,4.6,4.7,77,0.00,FEW,,0.02,538.0,WeatherDisplay:10.37,2013-03-23 00:49:00,
2013-03-22 14:54:00,74.6,66.9,29.88,West,277,8.1,8.1,77,0.00,CLR,,0.02,700.0,WeatherDisplay:10.37,2013-03-23 00:54:00,
2013-03-22 14:59:00,74.9,66.8,29.88,SSW,194,7.0,7.0,76,0.00,SCT,,0.02,450.0,WeatherDisplay:10.37,2013-03-23 00:59:00,
2013-03-22 15:04:00,74.8,66.3,29.88,SW,234,8.1,8.1,75,0.00,SCT,,0.02,404.0,WeatherDisplay:10.37,2013-03-23 01:04:00,
2013-03-22 15:09:00,74.4,66.0,29.88,WSW,245,6.9,6.9,75,0.00,BKN,,0.02,350.0,WeatherDisplay:10.37,2013-03-23 01:09:00,
2013-03-22 15:14:00,74.3,66.2,29.88,SW,216,6.0,6.0,76,0.00,BKN,,0.02,281.0,WeatherDisplay:10.37,2013-03-23 01:14:00,
2013-03-22 15:19:00,74.1,66.0,29.88,SW,229,5.8,5.8,76,0.00,BKN,,0.02,315.0,WeatherDisplay:10.37,2013-03-23 01:19:00,
2013-03-22 15:24:00,73.7,65.7,29.88,WSW,244,6.9,6.9,76,0.00,BKN,,0.02,241.0,WeatherDisplay:10.37,2013-03-23 01:24:00,
2013-03-22 15:29:00,73.3,65.7,29.88,WNW,283,4.6,4.6,77,0.00,BKN,,0.02,295.0,WeatherDisplay:10.37,2013-03-23 01:29:00,
2013-03-22 15:34:00,73.1,65.8,29.88,SW,229,6.0,6.0,78,0.00,BKN,,0.02,258.0,WeatherDisplay:10.37,2013-03-23 01:34:00,
2013-03-22 15:39:00,72.9,65.6,29.88,South,173,5.8,5.8,78,0.00,BKN,,0.02,234.0,WeatherDisplay:10.37,2013-03-23 01:39:00,
2013-03-22 15:44:00,72.6,65.3,29.88,WSW,255,5.8,5.8,78,0.00,BKN,,0.02,230.0,WeatherDisplay:10.37,2013-03-23 01:44:00,
2013-03-22 15:49:00,72.5,66.0,29.88,WSW,241,4.6,4.6,80,0.00,BKN,,0.02,200.0,WeatherDisplay:10.37,2013-03-23 01:49:00,
2013-03-22 15:54:00,72.3,66.1,29.88,WSW,250,6.9,6.9,81,0.00,BKN,,0.02,211.0,WeatherDisplay:10.37,2013-03-23 01:54:00,
2013-03-22 15:59:00,72.0,65.8,29.89,SW,219,5.8,5.8,81,0.00,OVC,,0.02,167.0,WeatherDisplay:10.37,2013-03-23 01:59:00,
2013-03-22 16:04:00,71.6,65.5,29.89,SW,219,5.8,5.8,81,0.00,OVC,,0.02,158.0,WeatherDisplay:10.37,2013-03-23 02:04:00,
2013-03-22 16:09:00,71.3,65.5,29.89,West,261,4.6,4.6,82,0.00,BKN,,0.02,218.0,WeatherDisplay:10.37,2013-03-23 02:09:00,
2013-03-22 16:14:00,71.1,65.7,29.89,SSW,198,5.0,5.0,83,0.00,BKN,,0.02,229.0,WeatherDisplay:10.37,2013-03-23 02:14:00,
2013-03-22 16:19:00,71.0,65.9,29.89,SSW,212,3.5,3.5,84,0.00,BKN,,0.02,232.0,WeatherDisplay:10.37,2013-03-23 02:19:00,
2013-03-22 16:24:00,71.0,65.9,29.89,SW,229,2.3,2.3,84,0.00,BKN,,0.02,186.0,WeatherDisplay:10.37,2013-03-23 02:24:00,
2013-03-22 16:29:00,70.9,65.8,29.89,SW,225,5.0,5.0,84,0.00,BKN,,0.02,109.0,WeatherDisplay:10.37,2013-03-23 02:29:00,
2013-03-22 16:34:00,70.7,65.6,29.89,SSW,200,8.1,8.1,84,0.00,OVC,,0.02,81.0,WeatherDisplay:10.37,2013-03-23 02:34:00,
2013-03-22 16:39:00,70.4,65.7,29.89,SSW,213,3.5,3.5,85,0.00,OVC,,0.02,84.0,WeatherDisplay:10.37,2013-03-23 02:39:00,
2013-03-22 16:44:00,70.2,65.8,29.89,SSW,213,4.6,4.6,86,0.00,OVC,,0.02,84.0,WeatherDisplay:10.37,2013-03-23 02:44:00,
2013-03-22 16:49:00,70.0,65.6,29.89,SW,220,3.5,3.5,86,0.00,OVC,,0.02,74.0,WeatherDisplay:10.37,2013-03-23 02:49:00,
2013-03-22 16:54:00,69.8,65.4,29.89,SW,230,3.5,3.5,86,0.00,OVC,,0.02,93.0,WeatherDisplay:10.37,2013-03-23 02:54:00,
2013-03-22 16:59:00,69.6,65.2,29.89,SSW,205,3.5,3.5,86,0.00,BKN,,0.02,98.0,WeatherDisplay:10.37,2013-03-23 02:59:00,
2013-03-22 17:04:00,69.5,65.1,29.89,SSW,198,3.5,3.5,86,0.00,BKN,,0.02,102.0,WeatherDisplay:10.37,2013-03-23 03:04:00,
2013-03-22 17:09:00,69.4,65.0,29.89,SW,216,3.5,3.5,86,0.00,BKN,,0.02,104.0,WeatherDisplay:10.37,2013-03-23 03:09:00,
2013-03-22 17:14:00,69.3,64.6,29.89,SSW,196,3.5,3.5,85,0.00,BKN,,0.02,100.0,WeatherDisplay:10.37,2013-03-23 03:14:00,
2013-03-22 17:19:00,69.2,64.2,29.89,SW,217,3.5,3.5,84,0.00,BKN,,0.02,93.0,WeatherDisplay:10.37,2013-03-23 03:19:00,
2013-03-22 17:24:00,69.2,64.2,29.89,SW,220,3.5,3.5,84,0.00,BKN,,0.02,84.0,WeatherDisplay:10.37,2013-03-23 03:24:00,
2013-03-22 17:29:00,69.3,64.3,29.89,WSW,244,3.5,3.5,84,0.00,BKN,,0.02,77.0,WeatherDisplay:10.37,2013-03-23 03:29:00,
2013-03-22 17:34:00,69.5,64.5,29.89,SW,218,3.5,3.5,84,0.00,BKN,,0.02,67.0,WeatherDisplay:10.37,2013-03-23 03:34:00,
2013-03-22 17:39:00,69.6,64.5,29.89,SW,234,3.5,3.5,84,0.00,BKN,,0.02,69.0,WeatherDisplay:10.37,2013-03-23 03:39:00,
2013-03-22 17:44:00,69.6,64.5,29.89,SW,234,1.1,0.0,84,0.00,BKN,,0.02,70.0,WeatherDisplay:10.37,2013-03-23 03:44:00,
2013-03-22 17:49:00,69.6,64.5,29.89,SW,234,0.0,0.1,84,0.00,BKN,,0.02,69.0,WeatherDisplay:10.37,2013-03-23 03:49:00,
2013-03-22 17:54:00,69.6,64.2,29.89,SW,234,2.3,2.3,83,0.00,BKN,,0.02,62.0,WeatherDisplay:10.37,2013-03-23 03:54:00,
2013-03-22 17:59:00,69.6,64.2,29.90,SW,234,0.0,0.4,83,0.00,FEW,,0.02,81.0,WeatherDisplay:10.37,2013-03-23 03:59:00,
2013-03-22 18:00:00,69.6,64.2,29.90,SW,234,1.0,1.0,83,0.00,FEW,,0.02,81.0,WeatherDisplay:10.37,2013-03-23 04:00:00,
2013-03-22 18:05:00,69.6,64.2,29.90,SW,234,1.1,1.1,83,0.00,CLR,,0.02,114.0,WeatherDisplay:10.37,2013-03-23 04:05:00,
2013-03-22 18:10:00,69.6,64.2,29.90,WSW,255,2.3,2.3,83,0.00,CLR,,0.02,74.0,WeatherDisplay:10.37,2013-03-23 04:10:00,
2013-03-22 18:15:00,69.7,64.0,29.90,West,279,2.3,2.3,82,0.00,CLR,,0.02,58.0,WeatherDisplay:10.37,2013-03-23 04:15:00,
2013-03-22 18:20:00,69.7,64.0,29.90,West,279,0.0,0.0,82,0.00,CLR,,0.02,49.0,WeatherDisplay:10.37,2013-03-23 04:20:00,
2013-03-22 18:25:00,69.8,64.1,29.90,West,279,1.1,0.0,82,0.00,FEW,,0.02,30.0,WeatherDisplay:10.37,2013-03-23 04:25:00,
2013-03-22 18:30:00,69.9,64.2,29.90,West,270,2.0,2.0,82,0.00,BKN,,0.02,16.0,WeatherDisplay:10.37,2013-03-23 04:30:00,
2013-03-22 18:35:00,69.9,64.2,29.90,SSW,207,2.3,2.3,82,0.00,BKN,,0.02,9.0,WeatherDisplay:10.37,2013-03-23 04:35:00,
2013-03-22 18:40:00,70.0,64.6,29.90,SSW,207,1.1,1.1,83,0.00,,,0.02,0.0,WeatherDisplay:10.37,2013-03-23 04:40:00,
2013-03-22 18:45:00,70.0,64.6,29.90,SSW,207,1.1,1.1,83,0.00,,,0.02,0.0,WeatherDisplay:10.37,2013-03-23 04:45:00,
2013-03-22 18:50:00,70.0,64.6,29.90,SSW,196,1.1,1.1,83,0.00,,,0.02,0.0,WeatherDisplay:10.37,2013-03-23 04:50:00,
2013-03-22 18:55:00,69.9,64.5,29.91,SSW,196,2.3,2.3,83,0.00,,,0.02,0.0,WeatherDisplay:10.37,2013-03-23 04:55:00,
2013-03-22 19:00:00,69.8,64.7,29.91,SSW,196,3.5,3.5,84,0.00,,,0.02,0.0,WeatherDisplay:10.37,2013-03-23 05:00:00,
2013-03-22 19:05:00,69.7,64.6,29.91,SSW,194,3.5,3.5,84,0.00,,,0.02,0.0,WeatherDisplay:10.37,2013-03-23 05:05:00,
2013-03-22 19:10:00,69.6,64.5,29.91,SSW,209,3.5,3.5,84,0.00,,,0.02,0.0,WeatherDisplay:10.37,2013-03-23 05:10:00,
2013-03-22 19:15:00,69.5,64.8,29.91,SSW,213,2.3,2.3,85,0.00,,,0.02,0.0,WeatherDisplay:10.37,2013-03-23 05:15:00,
2013-03-22 19:20:00,69.3,64.6,29.92,WSW,247,2.3,2.3,85,0.00,,,0.02,0.0,WeatherDisplay:10.37,2013-03-23 05:20:00,
2013-03-22 19:25:00,69.2,64.5,29.92,WSW,240,1.1,1.1,85,0.00,,,0.02,0.0,WeatherDisplay:10.37,2013-03-23 05:25:00,
2013-03-22 19:30:00,69.1,64.4,29.92,WSW,240,1.1,1.1,85,0.00,,,0.02,0.0,WeatherDisplay:10.37,2013-03-23 05:30:00,
2013-03-22 19:35:00,69.1,64.4,29.92,SW,221,2.3,2.3,85,0.00,,,0.02,0.0,WeatherDisplay:10.37,2013-03-23 05:35:00,
2013-03-22 19:40:00,69.0,64.6,29.92,SW,227,3.5,3.5,86,0.00,,,0.02,0.0,WeatherDisplay:10.37,2013-03-23 05:40:00,
2013-03-22 19:45:00,69.0,64.6,29.92,SSW,199,1.1,1.1,86,0.00,,,0.02,0.0,WeatherDisplay:10.37,2013-03-23 05:45:00,
2013-03-22 19:50:00,69.0,64.6,29.92,SW,222,3.5,3.5,86,0.00,,,0.02,0.0,WeatherDisplay:10.37,2013-03-23 05:50:00,
2013-03-22 19:55:00,68.9,64.5,29.93,SSW,212,3.5,3.5,86,0.00,,,0.02,0.0,WeatherDisplay:10.37,2013-03-23 05:55:00,
2013-03-22 20:00:00,69.0,65.0,29.93,SSW,193,4.6,4.6,87,0.00,,,0.02,0.0,WeatherDisplay:10.37,2013-03-23 06:00:00,
2013-03-22 20:05:00,69.0,65.0,29.93,SW,236,3.5,3.5,87,0.00,,,0.02,0.0,WeatherDisplay:10.37,2013-03-23 06:05:00,
2013-03-22 20:10:00,68.9,64.9,29.93,SSW,198,2.3,2.3,87,0.00,,,0.02,0.0,WeatherDisplay:10.37,2013-03-23 06:10:00,
2013-03-22 20:15:00,68.9,64.9,29.93,SSW,203,2.3,2.3,87,0.00,,,0.02,0.0,WeatherDisplay:10.37,2013-03-23 06:15:00,
2013-03-22 20:20:00,68.8,64.8,29.93,SSW,203,3.5,3.5,87,0.00,,,0.02,0.0,WeatherDisplay:10.37,2013-03-23 06:20:00,
2013-03-22 20:25:00,68.7,64.7,29.93,SSW,200,0.0,0.0,87,0.00,,,0.02,0.0,WeatherDisplay:10.37,2013-03-23 06:25:00,
2013-03-22 20:30:00,68.7,65.0,29.93,SSW,200,0.0,0.0,88,0.00,,,0.02,0.0,WeatherDisplay:10.37,2013-03-23 06:30:00,
2013-03-22 20:35:00,68.7,65.0,29.93,SSW,200,0.0,0.0,88,0.00,,,0.02,0.0,WeatherDisplay:10.37,2013-03-23 06:35:00,
2013-03-22 20:40:00,68.7,65.0,29.93,SSW,200,0.0,0.0,88,0.00,,,0.02,0.0,WeatherDisplay:10.37,2013-03-23 06:40:00,
2013-03-22 20:45:00,68.7,65.0,29.93,SE,131,0.0,0.0,88,0.00,,,0.02,0.0,WeatherDisplay:10.37,2013-03-23 06:45:00,
2013-03-22 20:50:00,68.7,65.0,29.93,ESE,119,0.0,0.0,88,0.00,,,0.02,0.0,WeatherDisplay:10.37,2013-03-23 06:50:00,
2013-03-22 20:55:00,68.6,64.9,29.93,SSE,167,0.0,0.0,88,0.00,,,0.02,0.0,WeatherDisplay:10.37,2013-03-23 06:55:00,
2013-03-22 21:00:00,68.6,64.9,29.93,SSE,159,0.0,0.0,88,0.00,,,0.02,0.0,WeatherDisplay:10.37,2013-03-23 07:00:00,
2013-03-22 21:05:00,68.6,64.9,29.93,SSE,159,0.0,0.0,88,0.00,,,0.02,0.0,WeatherDisplay:10.37,2013-03-23 07:05:00,
2013-03-22 21:10:00,68.5,65.1,29.94,SSE,159,0.0,0.0,89,0.00,,,0.02,0.0,WeatherDisplay:10.37,2013-03-23 07:10:00,
2013-03-22 21:15:00,68.5,65.1,29.94,SSE,159,0.0,0.0,89,0.00,,,0.02,0.0,WeatherDisplay:10.37,2013-03-23 07:15:00,
2013-03-22 21:20:00,68.4,65.0,29.94,SE,144,1.1,1.1,89,0.00,,,0.02,0.0,WeatherDisplay:10.37,2013-03-23 07:20:00,
2013-03-22 21:25:00,68.4,65.0,29.94,SE,134,1.1,1.1,89,0.00,,,0.02,0.0,WeatherDisplay:10.37,2013-03-23 07:25:00,
2013-03-22 21:30:00,68.5,65.4,29.94,East,97,2.3,2.3,90,0.00,,,0.02,0.0,WeatherDisplay:10.37,2013-03-23 07:30:00,
2013-03-22 21:35:00,68.5,65.4,29.94,East,97,2.0,2.0,90,0.00,,,0.02,0.0,WeatherDisplay:10.37,2013-03-23 07:35:00,
2013-03-22 21:40:00,68.6,65.5,29.94,East,89,3.5,3.5,90,0.00,,,0.02,0.0,WeatherDisplay:10.37,2013-03-23 07:40:00,
2013-03-22 21:45:00,68.5,65.4,29.94,East,84,1.1,0.0,90,0.00,,,0.02,0.0,WeatherDisplay:10.37,2013-03-23 07:45:00,
2013-03-22 21:50:00,68.5,65.8,29.94,SE,124,1.1,0.0,91,0.00,,,0.02,0.0,WeatherDisplay:10.37,2013-03-23 07:50:00,
2013-03-22 21:55:00,68.5,65.8,29.94,ESE,115,1.1,1.1,91,0.00,,,0.02,0.0,WeatherDisplay:10.37,2013-03-23 07:55:00,
2013-03-22 22:00:00,68.4,65.7,29.93,ESE,117,2.3,2.3,91,0.00,,,0.02,0.0,WeatherDisplay:10.37,2013-03-23 08:00:00,
2013-03-22 22:05:00,68.4,65.7,29.93,ESE,115,2.3,2.3,91,0.00,,,0.02,0.0,WeatherDisplay:10.37,2013-03-23 08:05:00,
2013-03-22 22:10:00,68.4,66.0,29.93,ESE,115,0.0,0.0,92,0.00,,,0.02,0.0,WeatherDisplay:10.37,2013-03-23 08:10:00,
2013-03-22 22:15:00,68.3,65.6,29.94,ESE,115,0.0,0.0,91,0.00,,,0.02,0.0,WeatherDisplay:10.37,2013-03-23 08:15:00,
2013-03-22 22:20:00,68.2,65.5,29.93,ESE,115,1.1,0.0,91,0.00,,,0.02,0.0,WeatherDisplay:10.37,2013-03-23 08:20:00,
2013-03-22 22:25:00,68.2,65.5,29.93,East,80,3.5,3.5,91,0.00,,,0.02,0.0,WeatherDisplay:10.37,2013-03-23 08:25:00,
2013-03-22 22:30:00,68.1,65.4,29.94,East,80,0.0,0.0,91,0.00,,,0.02,0.0,WeatherDisplay:10.37,2013-03-23 08:30:00,
2013-03-22 22:35:00,68.1,65.7,29.94,East,80,0.0,0.0,92,0.00,,,0.02,0.0,WeatherDisplay:10.37,2013-03-23 08:35:00,
2013-03-22 22:40:00,68.1,65.7,29.94,East,80,2.3,2.3,92,0.00,,,0.02,0.0,WeatherDisplay:10.37,2013-03-23 08:40:00,
2013-03-22 22:45:00,68.0,65.6,29.94,ENE,78,1.1,1.1,92,0.00,,,0.02,0.0,WeatherDisplay:10.37,2013-03-23 08:45:00,
2013-03-22 22:50:00,68.0,65.6,29.94,ENE,78,1.1,0.0,92,0.00,,,0.02,0.0,WeatherDisplay:10.37,2013-03-23 08:50:00,
2013-03-22 22:55:00,68.0,65.6,29.94,ENE,76,1.0,0.0,92,0.00,,,0.02,0.0,WeatherDisplay:10.37,2013-03-23 08:55:00,
2013-03-22 23:00:00,68.0,65.6,29.94,ENE,76,1.1,0.0,92,0.00,,,0.02,0.0,WeatherDisplay:10.37,2013-03-23 09:00:00,
2013-03-22 23:05:00,68.0,65.6,29.94,ENE,70,2.3,2.3,92,0.00,,,0.02,0.0,WeatherDisplay:10.37,2013-03-23 09:05:00,
2013-03-22 23:10:00,67.8,65.4,29.94,NE,42,1.1,0.0,92,0.00,,,0.02,0.0,WeatherDisplay:10.37,2013-03-23 09:10:00,
2013-03-22 23:15:00,67.7,65.3,29.94,North,360,3.5,3.5,92,0.00,,,0.02,0.0,WeatherDisplay:10.37,2013-03-23 09:15:00,
2013-03-22 23:20:00,67.6,65.2,29.94,NNE,16,3.5,3.5,92,0.00,,,0.02,0.0,WeatherDisplay:10.37,2013-03-23 09:20:00,
2013-03-22 23:25:00,67.4,65.0,29.94,NNE,30,1.1,1.1,92,0.00,,,0.02,0.0,WeatherDisplay:10.37,2013-03-23 09:25:00,
2013-03-22 23:30:00,67.4,65.0,29.94,NNE,30,0.0,0.0,92,0.00,,,0.02,0.0,WeatherDisplay:10.37,2013-03-23 09:30:00,
2013-03-22 23:35:00,67.4,65.0,29.94,NNE,30,0.0,0.0,92,0.00,,,0.02,0.0,WeatherDisplay:10.37,2013-03-23 09:35:00,
2013-03-22 23:40:00,67.3,64.9,29.94,NNE,30,0.0,0.0,92,0.00,,,0.02,0.0,WeatherDisplay:10.37,2013-03-23 09:40:00,
2013-03-22 23:45:00,67.4,65.0,29.94,NNE,30,0.0,0.0,92,0.00,,,0.02,0.0,WeatherDisplay:10.37,2013-03-23 09:45:00,
2013-03-22 23:50:00,67.3,64.9,29.94,NNE,30,0.0,0.0,92,0.01,RA,,0.03,0.0,WeatherDisplay:10.37,2013-03-23 09:50:00,
2013-03-22 23:55:00,67.3,64.9,29.94,NNE,30,0.0,0.0,92,0.01,RA,,0.03,0.0,WeatherDisplay:10.37,2013-03-23 09:55:00,